Flag for United Kingdom Weather past 2 weeks in West Bromwich, England, United Kingdom

Now
37 °F

Scattered clouds.


Feels Like: 27 °F
Forecast: 29 / 37 °F
Wind: 21 mph from Northwest

Location: Birmingham / Airport

Current Time: Feb 1, 2015 at 10:24:20 AM

Latest Report: Feb 1, 2015 at 9:50 AM


Visibility: N/A

Pressure: 29.53 "Hg

Humidity: 65%

Dew point: 27 °F

Location of West BromwichLocation

Historic Weather in West Bromwich — Graph

°F

West Bromwich temperature yesterday

Maximum temperature yesterday: 41 °F (at 11:20 AM)
Minimum temperature yesterday: 34 °F (at 12:50 AM)
Average temperature yesterday: 37 °F

Past Weeks' High & Low Weather Summary

 TemperatureHumidityPressure
High48 °F (Jan 26, 2:50 AM)100% (Jan 18, 2:50 AM)30.45 "Hg (Jan 18, 2:50 AM)
Low25 °F (Jan 20, 2:50 AM)49% (Jan 28, 12:50 PM)28.74 "Hg (Jan 30, 2:50 AM)
Average37 °F83%29.80 "Hg
* Reported Jan 17 9:20 AM — Feb 1 9:20 AM, West Bromwich, Weather by CustomWeather, © 2014

Note: Actual official high and low records may vary slightly from our data, if they occured in-between our weather recording intervals... More about our weather records

Advertising

West Bromwich weather history for previous 24 hours

 ConditionsComfort  
Time TempWeatherWind HumidityBarometerVisibility
9:20 AM
Feb 1
37 °FScattered clouds.25 mph65%29.53 "HgN/A
8:50 AM37 °FPartly sunny.25 mph65%29.50 "HgN/A
8:20 AM37 °FPartly sunny.23 mph70%29.50 "HgN/A
7:50 AM37 °FPartly sunny.25 mph70%29.47 "HgN/A
7:20 AM36 °FPassing clouds.23 mph75%29.47 "HgN/A
6:50 AM36 °FPassing clouds.22 mph81%29.45 "HgN/A
6:20 AM36 °FPartly cloudy.22 mph81%29.45 "HgN/A
5:50 AM36 °FPartly cloudy.25 mph81%29.45 "HgN/A
5:20 AM36 °FPassing clouds.22 mph81%29.42 "HgN/A
4:50 AM36 °FPassing clouds.23 mph81%29.42 "HgN/A
4:20 AM37 °FMostly cloudy.23 mph75%29.42 "HgN/A
3:50 AM37 °FOvercast.21 mph70%29.39 "HgN/A
3:20 AM37 °FOvercast.23 mph65%29.39 "HgN/A
2:50 AM37 °FPassing clouds.22 mph65%29.39 "HgN/A
2:20 AM37 °FOvercast.22 mph65%29.39 "HgN/A
1:50 AM37 °FPassing clouds.22 mph65%29.39 "HgN/A
1:20 AM37 °FClear.24 mph65%29.39 "Hg10 mi
12:50 AM37 °FClear.22 mph65%29.39 "Hg10 mi
12:20 AM37 °FChilly.21 mph65%29.36 "HgN/A
11:50 PM
Jan 31
37 °FPassing clouds.22 mph65%29.36 "HgN/A
11:20 PM37 °FPartly cloudy.23 mph65%29.36 "HgN/A
10:50 PM37 °FPassing clouds.21 mph65%29.36 "HgN/A
10:20 PM37 °FPassing clouds.23 mph65%29.36 "HgN/A
9:50 PM37 °FPassing clouds.22 mph65%29.36 "HgN/A
9:20 PM37 °FClear.21 mph65%29.36 "Hg10 mi
8:50 PM37 °FClear.20 mph65%29.36 "Hg10 mi
8:20 PM37 °FClear.18 mph65%29.36 "Hg10 mi
7:50 PM37 °FClear.20 mph65%29.33 "Hg10 mi
7:20 PM37 °FClear.22 mph65%29.33 "Hg10 mi
6:50 PM37 °FClear.21 mph65%29.33 "Hg10 mi
6:20 PM37 °FPassing clouds.21 mph70%29.30 "HgN/A
5:50 PM37 °FPassing clouds.21 mph70%29.27 "HgN/A
5:20 PM37 °FPassing clouds.22 mph70%29.27 "HgN/A
4:50 PM39 °FPassing clouds.21 mph65%29.24 "HgN/A
4:20 PM39 °FPartly sunny.18 mph70%29.24 "HgN/A
3:20 PM41 °FPartly sunny.22 mph61%29.21 "HgN/A
2:50 PM41 °FPartly sunny.23 mph61%29.21 "HgN/A
2:20 PM41 °FPartly sunny.23 mph61%29.18 "HgN/A
1:50 PM41 °FPartly sunny.23 mph66%29.18 "HgN/A
1:20 PM41 °FPartly sunny.22 mph66%29.15 "HgN/A
12:50 PM41 °FPartly sunny.24 mph70%29.12 "HgN/A
12:20 PM41 °FPartly sunny.23 mph70%29.12 "HgN/A
11:50 AM41 °FBroken clouds.21 mph70%29.09 "HgN/A
11:20 AM41 °FPartly sunny.22 mph70%29.09 "HgN/A
10:50 AM39 °FPartly sunny.25 mph81%29.06 "HgN/A
10:20 AM39 °FPartly sunny.21 mph81%29.06 "HgN/A
Weather by CustomWeather, © 2014

See weather overviewHow to use our weather pages